Location: Saluda
(35.2377°N, 82.3468°W)
Time: 16:34:26
(UTC+00:00)

Explorer 11/Cluster Stage 4 - Pass Details

Date: 10 October 2022
Orbit: 466 x 1247 km, 28.8° (Epoch: 08 December)

Event Time Altitude Azimuth Distance (km) Brightness Sun altitude
Rises 13:55:10 0° 241° (WSW) 3,795 9.8 26.7°
Reaches altitude 10° 13:57:53 10° 234° (SW) 2,941 9.4 27.2°
Maximum altitude 14:04:53 44° 165° (SSE) 1,602 9.2 28.4°
Drops below altitude 10° 14:12:31 10° 97° (E) 3,215 10.8 29.7°
Sets 14:15:37 0° 91° (E) 4,177 11.1 30.2°
